Other Public Products
Issued by NWS Charleston, SC

Current Version | Previous Version | Text Only | Print | Product List | Glossary Off
Versions: 1 2 3 4 5 6 7 8 9 10 11 12 13 14 15 16 17 18 19 20 21 22 23 24 25 26 27 28 29 30 31 32 33 34 35 36 37 38 39 40 41 42 43 44 45 46 47 48 49 50

000
FPUS82 KCHS 271326
OPUCHS

TEST...KCHS/KSAV Gateway Observations...TEST
National Weather Service Charleston SC
800 AM EST MON FEB 27 2017

NOTE: "fair" indicates few or no clouds below 12,000 feet with no
significant weather and/or obstructions to visibility.

SCZ050-WAZ558-NCZ071-TXZ119-213-PAZ071-DCZ001-FLZ074-172-MI076-
NYZ176-178-MAZ016-IL014-TNZ027-NJZ106-GAZ044-MD014-271400-
...Gateway Observations for Charleston International...

CITY           SKY/WX    TMP DP  RH WIND       PRES   REMARKS
Chas Airport   MOSUNNY   55  44  66 E8        30.32S
Seattle        FLURRIES  36  33  89 E6        29.75F WCI  31
Charlotte      PTSUNNY   44  28  53 NE5       30.37R
Dallas DFW     CLOUDY    63  62  97 S6        29.92R
Dallas Love    CLOUDY    63  59  87 SE6       29.94R
Philladelphia  PTSUNNY   37  26  64 SW7       30.43R WCI  32
Wash National  CLOUDY    40  35  83 SW5       30.43R WCI  37
Baltimore      PTSUNNY   31  28  89 W3        30.41R
Miami          MOSUNNY   75  65  70 E10       30.21R
Detroit        PTCLDY    32  24  72 SW5       30.20R WCI  27
Newark         PTSUNNY   35  21  56 SW8       30.41R WCI  29
Laguardia      MOSUNNY   39  21  48 SW12      30.40R WCI  32
J F K          MOSUNNY   38  27  64 SW12      30.42R WCI  30
Boston Logan   SUNNY     34  19  54 SW21      30.32S WCI  22
Ft. Lauderdale MOSUNNY   76  64  66 SE16      30.21R
Chicago O`Hare PTCLDY    29  23  78 S3        30.13R
Chicago Midway MOCLDY    35  26  69 S6        30.14R WCI  30
Houston Bush   CLOUDY    69  66  90 S3        29.99R
Houston Hobby  MOCLDY    69  68  96 S3        29.99R
Nashville      CLOUDY    48  29  47 CALM      30.23R
Atlanta        MOCLDY    48  29  47 E9        30.27R

$$

GAZ044-118-TXZ119-213-NCZ071-DCZ001-MDZ014-506-PAZ021-071-NJZ106-
NYZ176-178-MAZ106-OHZ011-021-055-MIZ076-KYZ091-ILZ014-INZ047-
MNZ060-ONZ431-271400-
...Gateway Observations for Savannah International...

CITY           SKY/WX    TMP DP  RH WIND       PRES   REMARKS
Savannah Arpt  MOSUNNY   57  48  72 E8        30.29F
Atlanta        MOCLDY    48  29  47 E9        30.27R
Charlotte      PTSUNNY   44  28  53 NE5       30.37R
Dallas DFW     CLOUDY    63  62  97 S6        29.92R
Houston Bush   CLOUDY    69  66  90 S3        29.99R
Wash National  CLOUDY    40  35  83 SW5       30.43R WCI  37
Wash Dulles    CLOUDY    33  26  75 CALM      30.41R
Baltimore      PTSUNNY   31  28  89 W3        30.41R
Philadelphia   PTSUNNY   37  26  64 SW7       30.43R WCI  32
Newark         PTSUNNY   35  21  56 SW8       30.41R WCI  29
Laguardia      MOSUNNY   39  21  48 SW12      30.40R WCI  32
J F K          MOSUNNY   38  27  64 SW12      30.42R WCI  30
Boston         SUNNY     34  19  54 SW21      30.32S WCI  22
Pittsburg      CLOUDY    36  18  48 S3        30.28R
Akron          CLOUDY    37  21  52 SW6       30.25R WCI  32
Cleveland      CLOUDY    39  19  44 S9        30.26R WCI  33
Cincinnati     LGT RAIN  41  37  86 S8        30.24R
Columbus       CLOUDY    39  24  53 S10       30.27R WCI  33
Detroit        PTCLDY    32  24  72 SW5       30.20R WCI  27
Chicago O`Hare PTCLDY    29  23  78 S3        30.13R
Minneapolis    PTCLDY    24  18  77 SE7       29.96R WCI  16
Indianapolis   CLOUDY    41  30  65 SE5       30.20R
Toronto Canada PTCLDY    37  23  56 SW10      30.15R WCI  30

$$




USA.gov is the U.S. government's official web portal to all federal, state and local government web resources and services.